Regional Weather Roundup
Issued by NWS

Home | Current Version | Previous Version | Text Only | Print | Product List | Glossary On
Versions: 1 2 3 4 5 6 7 8 9 10 11 12 13 14 15 16 17 18 19 20 21 22 23 24 25 26 27 28 29 30 31 32 33 34 35 36 37 38 39 40 41 42 43 44 45 46 47 48 49 50
000
ASUS45 KABQ 200110
RWRNM
NEW MEXICO REGIONAL WEATHER ROUNDUP
NATIONAL WEATHER SERVICE ALBUQUERQUE NM
600 PM MST THU JAN 19 2017

NOTE: "FAIR" MEANS FEW OR NO CLOUDS BELOW 12,000 FEET AGL WITH NO
       SIGNIFICANT WEATHER OR OBSTRUCTIONS TO VISION.

      THIS PRODUCT IS RELEASED AS TWO VERSIONS.  ONE VERSION NEAR
      THE TOP OF THE HOUR CONTAINING PRELIMINARY DATA FROM ALBUQUERQUE
      AND OTHER STATIONS.  A FINAL VERSION WITH ADDITIONAL DATA IS
      ISSUED ABOUT 10 MINUTES AFTER THE HOUR.

NMZ501-503-504-510>518-200200-
NORTHWEST PLATEAU/NORTHCENTRAL MOUNTAINS

CITY           SKY/WX    TMP DP  RH WIND       PRES   REMARKS
FARMINGTON     FLURRIES  34  31  88 CALM      29.79F
LOS ALAMOS     CLOUDY    36  26  65 CALM      29.79R
SANTA FE       CLOUDY    39  27  62 W10       29.76R WCI  32
TAOS           MOCLDY    36  18  48 W10       29.76S WCI  28
ANGEL FIRE     CLOUDY    29  20  70 W6        29.76R WCI  23

$$
NMZ402-403-502-505>509-200200-
WESTCENTRAL MOUNTAINS/SOUTHWEST MOUNTAINS

CITY           SKY/WX    TMP DP  RH WIND       PRES   REMARKS
GALLUP         CLOUDY    35  32  88 SW7       29.83R WCI  29
GRANTS         MOCLDY    36  28  73 SW5       29.83S WCI  32
SILVER CITY    DRIZZLE   39  34  83 W14       29.90R WCI  31

$$
NMZ407-409-411-412-200200-
SOUTHERN DESERTS

CITY           SKY/WX    TMP DP  RH WIND       PRES   REMARKS
DEMING         FAIR      48  30  49 W16G23    29.88S
LAS CRUCES     FAIR      48  27  45 W15G23    29.87R
HOLLOMAN AFB   CLOUDY    50  35  55 SW21      29.84S
ALAMOGORDO     FAIR      50  32  50 SW13G18   29.82F
T OR C         FAIR      48  32  53 VRB3      29.81S

$$
NMZ519>523-200200-
CENTRAL VALLEYS/CENTRAL HIGHLANDS

CITY           SKY/WX    TMP DP  RH WIND       PRES   REMARKS
ALBUQUERQUE    CLOUDY    45  31  58 NW12      29.80R
DOUBLE EAGLE   DRIZZLE   39  34  81 SW13      29.81R WCI  32
MORIARTY ARPT  FAIR      40  26  56 W15       29.78S WCI  32
CLINES CORNERS CLOUDY    36  26  67 W17       29.74F WCI  26
BELEN          CLOUDY    44  31  60 NW7       29.81R
SOCORRO        MOCLDY    48  31  50 N3G21     29.79S

$$
NMZ524>526-539-540-200200-
SOUTHCENTRAL MOUNTAINS

CITY           SKY/WX    TMP DP  RH WIND       PRES   REMARKS
RUIDOSO        MOCLDY    39  25  56 S5        29.78R

$$
NMZ527>531-200200-
NORTHEAST HIGHLANDS/NORTHEAST PLAINS

CITY           SKY/WX    TMP DP  RH WIND       PRES   REMARKS
LAS VEGAS      FAIR      38  25  59 SW8       29.63S WCI  32
RATON          FAIR      40  21  46 NW3       29.57S
CLAYTON        FAIR      46  24  42 SE5       29.56R

$$
NMZ532>537-200200-
EASTCENTRAL PLAINS

CITY           SKY/WX    TMP DP  RH WIND       PRES   REMARKS
TUCUMCARI      FAIR      51  28  41 W21       29.57R
CANNON AFB     FAIR      49  28  43 W18       29.62F
CLOVIS AIRPORT FAIR      50  25  37 W21G31    29.61S

$$
NMZ028-029-538-200200-
SOUTHEAST PLAINS

CITY           SKY/WX    TMP DP  RH WIND       PRES   REMARKS
ROSWELL        FAIR      54  28  36 W13       29.70R
ARTESIA        FAIR      54  34  47 SW15G22   29.73R
CARLSBAD       FAIR      56  29  35 W25G35    29.74R
HOBBS          CLEAR     50  32  50 SW18G24   29.72R


$$



USA.gov is the U.S. government's official web portal to all federal, state and local government web resources and services.